Regional Weather Roundup
Issued by NWS

Home | Current Version | Previous Version | Graphics & Text | Print | Product List | Glossary On
Versions: 1 2 3 4 5 6 7 8 9 10 11 12 13 14 15 16 17 18 19 20 21 22 23 24 25 26 27 28 29 30 31 32 33 34 35 36 37 38 39 40 41 42 43 44 45 46 47 48 49 50
000
ASUS43 KMPX 242010
RWRMN
WEATHER ROUNDUP FOR MINNESOTA
NATIONAL WEATHER SERVICE TWIN CITIES/CHANHASSEN MN
300 PM CDT THU MAY 24 2018


NOTE: "FAIR" INDICATES FEW OR NO CLOUDS BELOW 12,000 FEET WITH NO
SIGNIFICANT WEATHER AND/OR OBSTRUCTIONS TO VISIBILITY. N/A MEANS
CURRENT SKY AND/OR WEATHER CONDITIONS ARE NOT AVAILABLE.

MNZ060>063-068>070-242100-
   Twin Cities Metro

CITY           SKY/WX    TMP DP  RH WIND       PRES   REMARKS
TWIN CITIES    FAIR      91  61  36 S18G31    29.93F HX  91
ST PAUL        FAIR      90  61  37 S21G28    29.92F HX  90
CRYSTAL        FAIR      90  58  33 S20G32    29.91F
BLAINE         PTSUNNY   91  57  31 S23G31    29.92F HX  90
LAKEVILLE      FAIR      88  63  42 S13G23    29.93F
EDEN PRAIRIE   FAIR      90  63  40 S20G29    29.91F HX  91
SOUTH ST PAUL  FAIR      91  58  32 S16G22    29.93F HX  90
LAKE ELMO      FAIR      90  61  37 S20G26    29.94F
$$
MNZ001>005-007-008-013>017-022>024-027-028-242100-
   Northwest Minnesota

CITY           SKY/WX    TMP DP  RH WIND       PRES   REMARKS
BEMIDJI        FAIR      79  65  62 S7        29.86F
HALLOCK        FAIR      91  54  27 S20G29    29.71F
ROSEAU         FAIR      77  68  73 SE16      29.80S
WARROAD        FAIR      75  70  83 SE8       29.82F
THIEF RVR FALL FAIR      84  62  47 S16G22    29.80F
CROOKSTON      FAIR      88  54  31 SW20G35   29.77F
FOSSTON        FAIR      84  52  32 S16       29.84S
DETROIT LAKES  FAIR      84  59  42 S16       29.86F
MOORHEAD       FAIR      88  52  29 SW14G21   29.80F
PARK RAPIDS    FAIR      84  65  52 SW10      29.86F
MAHNOMEN       FAIR      84  60  44 SW16G22   29.83F
$$
MNZ006-009>011-018-025>026-242100-
   North Central Minnesota

CITY           SKY/WX    TMP DP  RH WIND       PRES   REMARKS
BAUDETTE       FAIR      78  65  63 S12       29.83F
FLAG ISLAND    FAIR      68  63  83 SE9       29.81F
INTL FALLS     FAIR      80  64  58 SW15G23   29.87F
WASKISH          N/A     66  64  94 SE5       29.85F
BIG FORK       LGT RAIN  73  66  78 SW3       29.91R
LONGVILLE      FAIR      81  66  61 SE12      29.88F
GRAND RAPIDS   PTSUNNY   79  67  66 S14       29.91F
CRANE LAKE     FAIR      73  64  73 S5        29.92F
ORR            FAIR      79  61  53 S13G18    29.88F
COOK           FAIR      77  66  69 SE7G18    29.91F
WALKER         FAIR      77  68  74 S6        29.88F
$$
MNZ012-019>021-037-242100-
   Northeast Minnesota

CITY           SKY/WX    TMP DP  RH WIND       PRES   REMARKS
DULUTH         FAIR      76  66  71 SE10      29.96F
ELY            FAIR      75  63  64 S12       29.93F
HIBBING        FAIR      80  65  59 S9G17     29.91F
EVELETH        FAIR      81  64  57 SE12G17   29.93F
DULUTH HARBOR  FOG       52  48  87 E7        29.97F VSB<1/4
TWO HARBORS    FAIR      81  73  78 E5        29.95F
SILVER BAY     FAIR      75  63  64 CALM      29.95F
GRAND MARAIS     N/A     44  39  82 SW6       29.98F
G MARAIS ARPRT CLOUDY    64  57  77 S9        30.00F
$$
MNZ029>031-032-039>041-046>048-054>057-064-242100-
   West Central Minnesota

CITY           SKY/WX    TMP DP  RH WIND       PRES   REMARKS
FERGUS FALLS   FAIR      88  59  37 SW10      29.79F
WHEATON        SUNNY     88  54  31 S10G17    29.85F
MORRIS         SUNNY     90  55  31 SW17      29.85F
ALEXANDRIA     PTSUNNY   89  53  29 SW17      29.89F
ELBOW LAKE     FAIR      88  58  36 SW15G22   29.86S
WADENA         FAIR      82  64  54 S14G22    29.87S
GLENWOOD       FAIR      90  55  31 SW13G24   29.89F
APPLETON       SUNNY     91  48  22 SW16      29.85F
BENSON         MOSUNNY   90  55  31 W12G22    29.87F
ORTONVILLE     SUNNY     88  57  35 SW10G16   29.86F
MADISON        SUNNY     93  55  27 SW13G23   29.86F HX  91
WILLMAR        FAIR      88  63  42 SW16      29.91F
$$
MNZ033>034-036-042>043-049>051-058-059-242100-
   Central Minnesota

CITY           SKY/WX    TMP DP  RH WIND       PRES   REMARKS
ST CLOUD       FAIR      90  60  36 S20G33    29.88F
SAUK CENTRE    FAIR      86  66  50 SW15G22   29.89F
PAYNESVILLE    FAIR      87  67  51 SW14G23   29.90F
PINE RIVER     FAIR      75  66  73 S3        29.91F
BRAINERD       FAIR      85  62  46 S21G31    29.89F
STAPLES        FAIR      82  63  51 S14G21    29.88F
LONG PRAIRIE   FAIR      86  63  45 S9G22     29.89F
LITTLE FALLS   FAIR      82  66  57 S10G16    29.89F
LITCHFIELD     FAIR      88  66  48 S3        29.89F HX  90
BUFFALO        FAIR      89  59  36 S14G23    29.91F
MAPLE LAKE     FAIR      91  62  38 S13G18    29.91F HX  91
HUTCHINSON     FAIR      91  65  42 S15G23    29.91F HX  92
$$
MNZ037-044-045-052-053-242100-
   East Central Minnesota

CITY           SKY/WX    TMP DP  RH WIND       PRES   REMARKS
PRINCETON      FAIR      91  61  35 S14G26    29.90F HX  91
MORA           FAIR      86  61  42 S17       29.92F
CAMBRIDGE      FAIR      91  66  43 S13G25    29.91F HX  94
RUSH CITY      FAIR      88  59  38 S12G20    29.91F
MOOSE LAKE     FAIR      82  64  54 S6        29.90F
HINCKLEY       LGT RAIN  77  68  73 S7G16     29.92F
CLOQUET        FAIR      73  63  68 E7        29.95F
MCGREGOR       PTSUNNY   79  66  65 S12G18    29.91F
$$
MNZ071>073-080-081-089-090-097-098-242100-
   Southwest Minnesota

CITY           SKY/WX    TMP DP  RH WIND       PRES   REMARKS
MONTEVIDEO     SUNNY     91  61  35 SW12      29.87F HX  91
CANBY          MOSUNNY   89  57  34 SW6       29.89F
MARSHALL       CLOUDY    90  65  43 SW17      29.88F HX  92
REDWOOD FALLS  CLOUDY    87  67  51 S15G22    29.89F HX  90
OLIVIA         CLOUDY    88  68  51 S16G28    29.89F HX  91
PIPESTONE      SUNNY     88  63  42 SW23      29.92S
WINDOM         CLOUDY    88  59  37 S17G25    29.92F
WORTHINGTON    SUNNY     90  61  37 S22G30    29.92F HX  90
JACKSON        SUNNY     84  63  48 S20G30    29.95F
TRACY          CLOUDY    90  62  39 S16       29.89F HX  90
SLAYTON        MOSUNNY   90  58  33 S21G31    29.92F
$$
MNZ065>067-074>077-082>085-091>093-242100-
   South Central Minnesota

CITY           SKY/WX    TMP DP  RH WIND       PRES   REMARKS
MANKATO        FAIR      90  63  40 S18G30    29.93S HX  91
NEW ULM        CLOUDY    86  61  42 S21G28    29.91F
ST JAMES       SUNNY     84  63  48 S25       29.93F
FAIRMONT       MOSUNNY   87  63  44 S24G30    29.94F
GLENCOE        FAIR      91  58  33 S12G22    29.91F HX  90
FARIBAULT      FAIR      90  61  37 S16G31    29.95F
OWATONNA       FAIR      88  63  42 S18G29    29.96F
WASECA         FAIR      86  61  42 S21G29    29.97F
ALBERT LEA     FAIR      84  55  37 S16G24    29.98F
$$
MNZ078>079-086>088-094>096-242100-
   Southeast Minnesota

CITY           SKY/WX    TMP DP  RH WIND       PRES   REMARKS
ROCHESTER      FAIR      88  61  40 S22G33    30.00F
RED WING       FAIR      90  54  29 SW10G23   29.94F
STANTON        FAIR      89  59  36 S16G26    29.93F
DODGE CENTER   FAIR      86  57  37 S21G32    29.99F
WINONA         FAIR      86  64  48 S9        29.99F
AUSTIN         FAIR      86  61  42 S17G28    29.98F
PRESTON        FAIR      85  60  43 S20G25    30.02F
$$
ABBREVIATIONS USED IN REMARKS
   TC - TEMPERATURES IN CELSIUS
  WCI - WIND CHILL INDEX
   HX - HEAT INDEX
  VSB - VISIBILITY
$$



USA.gov is the U.S. government's official web portal to all federal, state and local government web resources and services.